[Date Prev][Date Next][Thread Prev][Thread Next] - [Date Index][Thread Index][Author Index]

2 Line ISS Keps 6-24



ISS
1 25544U 98067A   02175.14467593  .00021854  00000-0  29075-3 0  5930
2 25544  51.6390  18.0177 0006919 274.5305 233.3296 15.58077284205115


----
Via the sarex mailing list at AMSAT.ORG courtesy of AMSAT-NA.
To unsubscribe, send "unsubscribe sarex" to Majordomo@amsat.org



AMSAT Top AMSAT Home